Regional Weather Roundup
Issued by NWS

Home | Current Version | Previous Version | Graphics & Text | Print | Product List | Glossary On
Versions: 1 2 3 4 5 6 7 8 9 10 11 12 13 14 15 16 17 18 19 20 21 22 23 24 25 26 27 28 29 30 31 32 33 34 35 36 37 38 39 40 41 42 43 44 45 46 47 48 49 50
000
ASUS43 KMKX 260411
RWRWI

WISCONSIN REGIONAL WEATHER ROUNDUP
NATIONAL WEATHER SERVICE MILWAUKEE/SULLIVAN WI
1100 PM CDT SAT OCT 25 2014

NOTE: "FAIR" INDICATES FEW OR NO CLOUDS BELOW 12,000 FEET WITH NO
SIGNIFICANT WEATHER AND/OR OBSTRUCTIONS TO VISIBILITY.

WIZ001-002-006>008-014>016-023>028-260500-
NORTHWEST WISCONSIN

CITY           SKY/WX    TMP DP  RH WIND       PRES   REMARKS
SUPERIOR ARPT  CLEAR     44  27  51 W7        29.99S
ASHLAND        CLEAR     45  28  51 W8        29.97S
HAYWARD        CLEAR     43  28  55 CALM      29.99F
SIREN          CLEAR     40  26  57 W3        30.03S
CUMBERLAND     CLEAR     41  27  56 NW7       30.01S
RICE LAKE      CLEAR     42  28  57 CALM      30.03S
CHETEK         CLEAR     41  31  68 CALM      30.01S
LADYSMITH      CLEAR     47  26  44 NW8       30.01R
EAU CLAIRE     CLEAR     45  27  49 W3        30.01R
MENOMONIE      CLEAR     47  28  48 W6        30.03R
NEW RICHMOND   CLEAR     45  27  48 NW3       30.03F
OSCEOLA        CLEAR     47  29  49 W3        30.06S
$$

WIZ003>005-009-010-017-018-260500-
NORTH CENTRAL WISCONSIN

CITY           SKY/WX    TMP DP  RH WIND       PRES   REMARKS
MANITOWISH WTR CLEAR     42  27  56 NW9       29.94R
ARBOR VITAE    CLEAR     46  27  46 NW8       29.93S
WOODRUFF       CLEAR     46  27  46 NW8       29.93S
RHINELANDER    CLEAR     43  25  49 W7        29.94R
EAGLE RIVER    CLEAR     45  25  45 NW7       29.91S
LAND O LAKES   CLEAR     45  28  51 NW5       29.92S
PHILLIPS       CLEAR     45  25  45 W3        29.96S
TOMAHAWK       CLEAR     42  24  48 W3        29.95S
MEDFORD        CLEAR     45  25  45 NW9       29.97R
MERRILL        CLEAR     48  25  40 NW9       29.95S
$$

WIZ029-030-035-036-043>047-260500-
CENTRAL WISCONSIN

CITY           SKY/WX    TMP DP  RH WIND       PRES   REMARKS
WAUSAU         CLEAR     45  26  47 W7        29.95R
MOSINEE        CLEAR     45  27  49 NW10      29.97R
MARSHFIELD     CLEAR     42  28  57 NW7       29.98R
STEVENS POINT  CLEAR     46  25  43 W5        29.97R
WAUPACA        CLEAR     48  28  45 W7        29.97R
WAUTOMA        CLOUDY    47  30  51 W7        29.98R
WISC RAPIDS    CLEAR     45  27  49 W6        29.99R
CAMP DOUGLAS   NOT AVBL
$$

WIZ011>013-019>022-031-037>040-048>050-260500-
NORTHEAST WISCONSIN

CITY           SKY/WX    TMP DP  RH WIND       PRES   REMARKS
ANTIGO         CLEAR     43  26  50 W9        29.94R
SHAWANO        CLEAR     48  26  41 W6        29.93S
OCONTO         CLEAR     51  25  37 W8        29.89S
STURGEON BAY   CLEAR     52  28  40 NW13      29.89S
GREEN BAY      CLEAR     48  31  51 W10       29.92R
MANITOWOC      CLEAR     51  31  46 W12       29.91R
APPLETON       CLEAR     45  28  53 W9        29.94S
CLINTONVILLE   CLEAR     43  28  56 W8        29.94R
OSHKOSH        CLEAR     47  30  51 W7        29.95R
$$

WIZ032>034-041-042-053>061-260500-
SOUTHWEST WISCONSIN

CITY           SKY/WX    TMP DP  RH WIND       PRES   REMARKS
LA CROSSE      CLEAR     45  37  73 CALM      30.02S
SPARTA         CLEAR     37  29  75 CALM      30.02S
VIROQUA        CLEAR     47  28  48 W6        30.02S
BOSCOBEL       CLEAR     43  35  73 CALM      30.03R
PRAIRIE DU CHI CLEAR     43  34  69 CALM      30.04S
PLATTEVILLE    CLEAR     47  32  55 W7        30.04R
$$

WIZ056-057-062-063-064-067-068-260500-
SOUTH CENTRAL WISCONSIN

CITY           SKY/WX    TMP DP  RH WIND       PRES   REMARKS
REEDSBURG      CLEAR     46  31  56 CALM      30.00R
BARABOO/DELLS  CLEAR     47  27  45 W5        30.00R
LONE ROCK      CLEAR     54  28  36 W7        30.02R
MINERAL POINT  CLEAR     48  28  46 CALM      30.02R
MADISON        CLEAR     50  28  42 CALM      29.99S
MIDDLETON      CLEAR     44  30  57 W7        30.00S
WATERTOWN      CLEAR     48  30  49 W3        29.96S
MONROE         CLEAR     52  30  43 W10       30.00S
JANESVILLE     CLEAR     45  30  57 NW5       29.99R
$$

WIZ051-052-058>065-066-070>072-260500-
SOUTHEAST WISCONSIN

CITY           SKY/WX    TMP DP  RH WIND       PRES   REMARKS
MILWAUKEE      CLEAR     55  27  34 NW10      29.95S
WAUKESHA       CLEAR     45  30  57 W8        29.97S
MILWAUKEE/TIMM CLEAR     48  27  43 W6        29.96S
RACINE         CLEAR     53  28  38 W7        29.97R
BURLINGTON     CLEAR     47  29  49 NW6       29.97S
KENOSHA        CLEAR     51  29  42 W9        29.96S
FOND DU LAC    CLEAR     50  28  42 W12       29.95S
SHEBOYGAN      CLEAR     51  29  42 W10       29.93S
WEST BEND      CLEAR     50  27  40 W12       29.95S
JUNEAU         CLEAR     49  29  46 W7        29.97S
$$

LSZ147-162-260500-
LAKE SUPERIOR

STATION/POSITION TIME  TEMP    WIND        PRES    WAVE
                       AIR SEA DIR/SP/G            HT/PER
                 (UTC) (F)     (DEG/KT/KT) (MB)    (FT/S)
W MID LAKE BUOY  0350   49 46  270/ 14/ 16 1012.6R   4/ 5
DEVILS ISLAND    0400   51     280/ 17/ 19 1014.1S
PORT WING        0340   52     260/ 10/ 12 1015.2R
SAXON HARBOR     0300   52     250/  5/  9 1014.2R
$$

LMZ867-665-643>646-260500-
LAKE MICHIGAN

STATION/POSITION TIME  TEMP    WIND        PRES    WAVE
                       AIR SEA DIR/SP/G            HT/PER
                 (UTC) (F)     (DEG/KT/KT) (MB)    (FT/S)
CHAMBERS ISLAND  0300   54     250/  3/  6 1011.5R
N MID LAKE BUOY  0350   53 51  300/ 19/ 21 1009.8R   3/ 4
NORTHPORT PIER   0300   55     300/ 14/ 22 1010.5R
SISTER BAY       0313          330/ 20/ 24   N/A
ALGOMA LAKESHORE 0311          310/ 12/ 16   N/A
KEWAUNEE LAKESHO 0300   50     310/  7/  8 1011.2R
SHEBOYGAN LAKESH 0400   55 51  290/ 13/ 15 1013.4R
PORT WASHINGTON  0340   55     280/  6/  9 1014.2R
ATWATER BUOY     0400   56     280/ 14/ 19 1015.1R
MILWAUKEE LAKESH 0300   57     290/ 10/ 13   N/A
S MID LAKE BUOY  0350   57 54  290/ 16/ 19 1013.4R   3/ 5
KENOSHA   LAKESH 0400   55     290/ 12/ 16 1013.9F
$$

TC  - TEMPERATURE IN CELSIUS
VSB - VISIBILITY IN STATUTE MILES
WCI - WIND CHILL INDEX
HX  - HEAT INDEX




USA.gov is the U.S. government's official web portal to all federal, state and local government web resources and services.